Regional Weather Roundup
Issued by NWS

Home | Current Version | Previous Version | Text Only | Print | Product List | Glossary Off
Versions: 1 2 3 4 5 6 7 8 9 10 11 12 13 14 15 16 17 18 19 20 21 22 23 24 25 26 27 28 29 30 31 32 33 34 35 36 37 38 39 40 41 42 43 44 45 46 47 48 49 50

000
ASUS43 KDMX 240903
RWRIA

WEATHER ROUNDUP FOR IOWA
NATIONAL WEATHER SERVICE DES MOINES IA
400 AM CDT TUE MAY 24 2016

NOTE: "FAIR" INDICATES FEW OR NO CLOUDS BELOW 12,000 FEET WITH NO
SIGNIFICANT WEATHER AND/OR OBSTRUCTIONS TO VISIBILITY.

* - THESE STATIONS ARE NOT NWS STATIONS...THUS NOT UNDER NWS
QUALITY CONTROL.  THEY ALSO DO NOT REPORT WEATHER SUCH
AS PRECIPITATION OR FOG.

IAZ001>003-012>014-020>022-031>034-043>046-241000-
   NORTHWEST IOWA

CITY           SKY/WX    TMP DP  RH WIND       PRES   REMARKS
CARROLL *      CLOUDY    63  59  88 S20G26    29.83S
CHEROKEE *     PTCLDY    61  61 100 S5        29.84R
DENISON *      CLEAR     63  59  88 VRB7G13   29.84R
LE MARS *      CLEAR     63  61  94 S7        29.83R
ORANGE CITY *  CLEAR     63  61  94 S9        29.83R
SHELDON *      PTCLDY    61  61 100 S13       29.81R FOG
SIOUX CITY     CLEAR     63  60  90 S8        29.84R
SPENCER        CLOUDY    62  59  90 S9        29.83R
STORM LAKE *   CLEAR     61  59  94 SW10      29.86R
$$

IAZ055>058-069>071-079>083-090>094-241000-
   SOUTHWEST IOWA

CITY           SKY/WX    TMP DP  RH WIND       PRES   REMARKS
ATLANTIC *     CLEAR     63  61  94 SE5       29.87S
AUDUBON *      MOCLDY    63  59  88 SE6       29.87F
CLARINDA *       N/A     64  63  94 MISG      29.87F
COUNCIL BLFS * PTCLDY    59  59 100 SE5       29.84F
CRESTON *      LGT RAIN  63  61  94 S7        29.90F
HARLAN  *        N/A    N/A N/A N/A MISG        N/A
LAMONI         CLOUDY    63  60  90 CALM      29.91R
RED OAK *      CLOUDY    64  61  88 S7        29.85F
SHENANDOAH *   CLOUDY    64  64 100 NE6       29.85F
$$

IAZ047>049-059>061-072>074-084-241000-
   CENTRAL IOWA

CITY           SKY/WX    TMP DP  RH WIND       PRES   REMARKS
AMES           LGT RAIN  64  61  90 W12       29.87F
ANKENY *       CLOUDY    64  64 100 CALM      29.89F
BOONE *        RAIN      63  61  94 W9        29.86F
CHARITON *     CLOUDY    66  61  82 SW6       29.90R
DES MOINES     CLOUDY    66  62  87 W5        29.90S
GRINNELL*      DRIZZLE   63  59  88 SW3       29.91R
KNOXVILLE *    CLOUDY    66  59  77 W3        29.89R
MARSHALLTOWN   LGT RAIN  64  62  93 SW9       29.87F
NEWTON *       CLOUDY    64  64 100 W5        29.90S
PELLA *        MOCLDY    65  59  80 CALM      29.92R
PERRY *        LGT RAIN  63  61  94 SW8       29.89F
$$

IAZ004>006-015-016-023>025-035-036-241000-
   NORTH CENTRAL IOWA

CITY           SKY/WX    TMP DP  RH WIND       PRES   REMARKS
ALGONA *       MOCLDY    64  61  88 SW15G23   29.84R
CLARION *      CLOUDY    63  63 100 SW21      29.85S
ESTHERVILLE    CLOUDY    61  59  93 S8        29.82R
FORT DODGE *   CLOUDY    61  55  82 SE9G17    29.85F
MASON CITY     CLOUDY    64  61  90 S10       29.85R
FOREST CITY *    N/A     63  61  94 SW12      29.85R
WEBSTER CITY * LGT RAIN  63  63 100 SW10      29.87R
IOWA FALLS *   RAIN      64  61  88 SW21G31   29.87F
$$

IAZ007>011-017>019-026>030-037>042-050>054-066-241000-
   NORTHEAST IOWA

CITY           SKY/WX    TMP DP  RH WIND       PRES   REMARKS
CEDAR RAPIDS   CLOUDY    63  55  75 S6        29.89R
CHARLES CITY * MOCLDY    63  59  88 S10       29.85F
CLINTON *      PTCLDY    61  51  70 SE7       29.93R
DECORAH *      PTCLDY    66  54  63 S7        29.85S
DUBUQUE        CLOUDY    60  50  69 S7        29.91R
MONTICELLO *   CLOUDY    63  52  67 SE6       29.89S
OELWEIN *      CLOUDY    63  54  72 S9        29.88S
WATERLOO       MOCLDY    66  55  67 S12       29.87R
$$

IAZ064-065-067-068-078-241000-
   EAST CENTRAL IOWA

CITY           SKY/WX    TMP DP  RH WIND       PRES   REMARKS
DAVENPORT      MOCLDY    65  50  58 S10       29.92S
IOWA CITY      CLOUDY    62  55  77 CALM      29.91R
MT. PLEASANT * CLOUDY    66  55  68 S8        29.91R
MUSCATINE *    CLOUDY    66  52  59 S6        29.91R
QUAD CITIES    PTCLDY    67  50  54 S7        29.91S
$$

IAZ062-063-075>077-085>089-095>099-241000-
   SOUTHEAST IOWA

CITY           SKY/WX    TMP DP  RH WIND       PRES   REMARKS
BURLINGTON     PTCLDY    63  54  72 S7        29.92R
FAIRFIELD *      N/A    N/A N/A N/A MISG        N/A
FORT MADISON * CLEAR     64  55  72 S6        29.93R
KEOKUK *       CLEAR     66  55  68 S7        29.91R
OSKALOOSA *    CLOUDY    64  57  77 SW6       29.91R
OTTUMWA        CLOUDY    65  56  72 SW8       29.90R
WASHINGTON *   PTCLDY    63  55  77 SW7       29.91S
$$

ABBREVIATIONS USED IN REMARKS
   TC - TEMPERATURES IN CELSIUS
  WCI - WIND CHILL INDEX
   HX - HEAT INDEX
  VSB - VISIBILITY
$$




USA.gov is the U.S. government's official web portal to all federal, state and local government web resources and services.